Time,TemperatureF,DewpointF,PressureIn,WindDirection,WindDirectionDegrees,WindSpeedMPH,WindSpeedGustMPH,Humidity,HourlyPrecipIn,Conditions,Clouds,dailyrainin,SolarRadiationWatts/m^2,SoftwareType,DateUTC
2013-05-13 00:00:00,47.7,26.3,30.33,WSW,248,3.0,12.0,43,0.00,,,0.00,0,WeatherCatV1.15B25,2013-05-13 06:00:00,
2013-05-13 00:05:00,48.2,26.8,30.33,WNW,292,2.0,13.0,43,0.00,,,0.00,0,WeatherCatV1.15B25,2013-05-13 06:05:00,
2013-05-13 00:10:00,48.2,26.8,30.33,WNW,292,2.0,13.0,43,0.00,,,0.00,0,WeatherCatV1.15B25,2013-05-13 06:10:00,
2013-05-13 00:15:00,48.2,26.8,30.33,WNW,292,2.0,13.0,43,0.00,,,0.00,0,WeatherCatV1.15B25,2013-05-13 06:15:00,
2013-05-13 00:20:00,47.1,26.3,30.33,NW,315,3.0,12.0,44,0.00,,,0.00,0,WeatherCatV1.15B25,2013-05-13 06:20:00,
2013-05-13 00:25:00,47.1,26.3,30.33,NW,315,3.0,12.0,44,0.00,,,0.00,0,WeatherCatV1.15B25,2013-05-13 06:25:00,
2013-05-13 00:30:00,47.1,26.3,30.33,NW,315,3.0,12.0,44,0.00,,,0.00,0,WeatherCatV1.15B25,2013-05-13 06:30:00,
2013-05-13 00:35:00,46.8,27.1,30.33,North,0,3.0,10.0,46,0.00,,,0.00,0,WeatherCatV1.15B25,2013-05-13 06:35:00,
2013-05-13 00:40:00,46.8,27.1,30.33,North,0,3.0,10.0,46,0.00,,,0.00,0,WeatherCatV1.15B25,2013-05-13 06:40:00,
2013-05-13 00:45:00,46.8,27.1,30.33,North,0,3.0,10.0,46,0.00,,,0.00,0,WeatherCatV1.15B25,2013-05-13 06:45:00,
2013-05-13 00:50:00,46.4,26.2,30.33,NNW,338,4.0,11.0,45,0.00,,,0.00,0,WeatherCatV1.15B25,2013-05-13 06:50:00,
2013-05-13 00:55:00,46.4,26.2,30.33,NNW,338,4.0,11.0,45,0.00,,,0.00,0,WeatherCatV1.15B25,2013-05-13 06:55:00,
2013-05-13 01:00:00,46.4,26.2,30.33,NNW,338,4.0,11.0,45,0.00,,,0.00,0,WeatherCatV1.15B25,2013-05-13 07:00:00,
2013-05-13 01:05:00,46.4,26.2,30.32,NW,315,7.0,14.0,45,0.00,,,0.00,0,WeatherCatV1.15B25,2013-05-13 07:05:00,
2013-05-13 01:10:00,46.4,26.2,30.32,NW,315,7.0,14.0,45,0.00,,,0.00,0,WeatherCatV1.15B25,2013-05-13 07:10:00,
2013-05-13 01:15:00,46.2,26.6,30.32,NW,315,9.0,16.0,46,0.00,,,0.00,0,WeatherCatV1.15B25,2013-05-13 07:15:00,
2013-05-13 01:20:00,46.2,26.6,30.32,NW,315,9.0,16.0,46,0.00,,,0.00,0,WeatherCatV1.15B25,2013-05-13 07:20:00,
2013-05-13 01:25:00,46.2,26.6,30.32,NW,315,9.0,16.0,46,0.00,,,0.00,0,WeatherCatV1.15B25,2013-05-13 07:25:00,
2013-05-13 01:30:00,46.4,25.7,30.32,NW,315,10.0,17.0,44,0.00,,,0.00,0,WeatherCatV1.15B25,2013-05-13 07:30:00,
2013-05-13 01:35:00,46.4,25.7,30.32,NW,315,10.0,17.0,44,0.00,,,0.00,0,WeatherCatV1.15B25,2013-05-13 07:35:00,
2013-05-13 01:40:00,46.4,25.7,30.32,NW,315,10.0,17.0,44,0.00,,,0.00,0,WeatherCatV1.15B25,2013-05-13 07:40:00,
2013-05-13 01:45:00,47.4,25.5,30.32,WNW,292,9.0,17.0,42,0.00,,,0.00,0,WeatherCatV1.15B25,2013-05-13 07:45:00,
2013-05-13 01:50:00,47.4,25.5,30.32,WNW,292,9.0,17.0,42,0.00,,,0.00,0,WeatherCatV1.15B25,2013-05-13 07:50:00,
2013-05-13 01:55:00,47.4,25.5,30.32,WNW,292,9.0,17.0,42,0.00,,,0.00,0,WeatherCatV1.15B25,2013-05-13 07:55:00,
2013-05-13 02:00:00,47.4,25.5,30.32,WNW,292,9.0,17.0,42,0.00,,,0.00,0,WeatherCatV1.15B25,2013-05-13 08:00:00,
2013-05-13 02:05:00,47.1,25.8,30.32,WNW,292,10.0,14.0,43,0.00,,,0.00,0,WeatherCatV1.15B25,2013-05-13 08:05:00,
2013-05-13 02:10:00,47.1,25.8,30.32,WNW,292,10.0,14.0,43,0.00,,,0.00,0,WeatherCatV1.15B25,2013-05-13 08:10:00,
2013-05-13 02:15:00,47.1,25.8,30.32,WNW,292,10.0,14.0,43,0.00,,,0.00,0,WeatherCatV1.15B25,2013-05-13 08:15:00,
2013-05-13 02:20:00,47.0,25.1,30.32,WNW,292,10.0,16.0,42,0.00,,,0.00,0,WeatherCatV1.15B25,2013-05-13 08:20:00,
2013-05-13 02:25:00,47.0,25.1,30.32,WNW,292,10.0,16.0,42,0.00,,,0.00,0,WeatherCatV1.15B25,2013-05-13 08:25:00,
2013-05-13 02:30:00,47.0,25.1,30.32,WNW,292,10.0,16.0,42,0.00,,,0.00,0,WeatherCatV1.15B25,2013-05-13 08:30:00,
2013-05-13 02:35:00,47.1,25.2,30.32,NW,315,7.0,12.0,42,0.00,,,0.00,0,WeatherCatV1.15B25,2013-05-13 08:35:00,
2013-05-13 02:40:00,47.1,25.2,30.32,NW,315,7.0,12.0,42,0.00,,,0.00,0,WeatherCatV1.15B25,2013-05-13 08:40:00,
2013-05-13 02:45:00,47.1,25.2,30.32,NW,315,7.0,12.0,42,0.00,,,0.00,0,WeatherCatV1.15B25,2013-05-13 08:45:00,
2013-05-13 02:50:00,45.5,26.5,30.32,NW,315,3.0,10.0,47,0.00,,,0.00,0,WeatherCatV1.15B25,2013-05-13 08:50:00,
2013-05-13 02:55:00,45.5,26.5,30.32,NW,315,3.0,10.0,47,0.00,,,0.00,0,WeatherCatV1.15B25,2013-05-13 08:55:00,
2013-05-13 03:00:00,45.5,26.5,30.32,NW,315,3.0,10.0,47,0.00,,,0.00,0,WeatherCatV1.15B25,2013-05-13 09:00:00,
2013-05-13 03:05:00,44.6,26.1,30.31,WNW,292,4.0,11.0,48,0.00,,,0.00,0,WeatherCatV1.15B25,2013-05-13 09:05:00,
2013-05-13 03:10:00,44.6,26.1,30.31,WNW,292,4.0,11.0,48,0.00,,,0.00,0,WeatherCatV1.15B25,2013-05-13 09:10:00,
2013-05-13 03:15:00,44.6,26.1,30.31,WNW,292,4.0,11.0,48,0.00,,,0.00,0,WeatherCatV1.15B25,2013-05-13 09:15:00,
2013-05-13 03:20:00,43.1,25.7,30.31,WNW,292,4.0,7.0,50,0.00,,,0.00,0,WeatherCatV1.15B25,2013-05-13 09:20:00,
2013-05-13 03:25:00,43.1,25.7,30.31,WNW,292,4.0,7.0,50,0.00,,,0.00,0,WeatherCatV1.15B25,2013-05-13 09:25:00,
2013-05-13 03:30:00,43.1,25.7,30.31,WNW,292,4.0,7.0,50,0.00,,,0.00,0,WeatherCatV1.15B25,2013-05-13 09:30:00,
2013-05-13 03:35:00,42.3,26.4,30.32,WNW,292,2.0,6.0,53,0.00,,,0.00,0,WeatherCatV1.15B25,2013-05-13 09:35:00,
2013-05-13 03:40:00,42.3,26.4,30.32,WNW,292,2.0,6.0,53,0.00,,,0.00,0,WeatherCatV1.15B25,2013-05-13 09:40:00,
2013-05-13 03:45:00,42.3,26.4,30.32,WNW,292,2.0,6.0,53,0.00,,,0.00,0,WeatherCatV1.15B25,2013-05-13 09:45:00,
2013-05-13 03:50:00,42.1,27.1,30.32,WNW,292,0.0,3.0,55,0.00,,,0.00,0,WeatherCatV1.15B25,2013-05-13 09:50:00,
2013-05-13 03:55:00,42.1,27.1,30.32,WNW,292,0.0,3.0,55,0.00,,,0.00,0,WeatherCatV1.15B25,2013-05-13 09:55:00,
2013-05-13 04:00:00,42.1,27.1,30.32,WNW,292,0.0,3.0,55,0.00,,,0.00,0,WeatherCatV1.15B25,2013-05-13 10:00:00,
2013-05-13 04:05:00,41.3,26.4,30.32,WNW,292,0.0,5.0,55,0.00,,,0.00,0,WeatherCatV1.15B25,2013-05-13 10:05:00,
2013-05-13 04:10:00,41.3,26.4,30.32,WNW,292,0.0,5.0,55,0.00,,,0.00,0,WeatherCatV1.15B25,2013-05-13 10:10:00,
2013-05-13 04:15:00,41.3,26.4,30.32,WNW,292,0.0,5.0,55,0.00,,,0.00,0,WeatherCatV1.15B25,2013-05-13 10:15:00,
2013-05-13 04:20:00,41.2,26.7,30.32,WNW,292,3.0,6.0,56,0.00,,,0.00,0,WeatherCatV1.15B25,2013-05-13 10:20:00,
2013-05-13 04:25:00,41.2,26.7,30.32,WNW,292,3.0,6.0,56,0.00,,,0.00,0,WeatherCatV1.15B25,2013-05-13 10:25:00,
2013-05-13 04:30:00,41.2,26.7,30.32,WNW,292,3.0,6.0,56,0.00,,,0.00,0,WeatherCatV1.15B25,2013-05-13 10:30:00,
2013-05-13 04:35:00,41.1,27.5,30.32,WNW,292,0.0,0.0,58,0.00,,,0.00,0,WeatherCatV1.15B25,2013-05-13 10:35:00,
2013-05-13 04:40:00,41.1,27.5,30.32,WNW,292,0.0,0.0,58,0.00,,,0.00,0,WeatherCatV1.15B25,2013-05-13 10:40:00,
2013-05-13 04:45:00,41.1,27.5,30.32,WNW,292,0.0,0.0,58,0.00,,,0.00,0,WeatherCatV1.15B25,2013-05-13 10:45:00,
2013-05-13 04:50:00,39.5,27.2,30.32,NW,315,1.0,6.0,61,0.00,,,0.00,0,WeatherCatV1.15B25,2013-05-13 10:50:00,
2013-05-13 04:55:00,39.5,27.2,30.32,NW,315,1.0,6.0,61,0.00,,,0.00,0,WeatherCatV1.15B25,2013-05-13 10:55:00,
2013-05-13 05:07:00,39.5,27.2,30.32,NW,315,1.0,6.0,61,0.00,,,0.00,0,WeatherCatV1.15B25,2013-05-13 11:07:00,
2013-05-13 05:12:00,39.1,28.0,30.32,NW,311,0.0,0.0,64,0.00,,,0.00,0,WeatherCatV1.15B25,2013-05-13 11:12:00,
2013-05-13 05:17:00,38.6,27.9,30.32,NW,311,0.0,6.0,65,0.00,,,0.00,0,WeatherCatV1.15B25,2013-05-13 11:17:00,
2013-05-13 05:22:00,38.8,27.7,30.32,NW,311,0.0,0.0,64,0.00,,,0.00,0,WeatherCatV1.15B25,2013-05-13 11:22:00,
2013-05-13 05:27:00,38.8,27.7,30.32,NW,311,0.0,0.0,64,0.00,,,0.00,0,WeatherCatV1.15B25,2013-05-13 11:27:00,
2013-05-13 05:32:00,38.6,27.9,30.32,NW,311,0.0,4.0,65,0.00,,,0.00,0,WeatherCatV1.15B25,2013-05-13 11:32:00,
2013-05-13 05:37:00,38.3,27.6,30.32,NW,311,0.0,0.0,65,0.00,,,0.00,0,WeatherCatV1.15B25,2013-05-13 11:37:00,
2013-05-13 05:42:00,38.3,27.6,30.32,NW,311,0.0,0.0,65,0.00,,,0.00,0,WeatherCatV1.15B25,2013-05-13 11:42:00,
2013-05-13 05:47:00,38.2,27.9,30.32,NW,311,0.0,0.0,66,0.00,,,0.00,0,WeatherCatV1.15B25,2013-05-13 11:47:00,
2013-05-13 05:52:00,38.2,27.9,30.32,NW,311,0.0,0.0,66,0.00,,,0.00,0,WeatherCatV1.15B25,2013-05-13 11:52:00,
2013-05-13 05:57:00,38.5,28.1,30.32,NW,311,0.0,0.0,66,0.00,,,0.00,0,WeatherCatV1.15B25,2013-05-13 11:57:00,
2013-05-13 06:02:00,38.3,27.6,30.32,NW,311,0.0,0.0,65,0.00,,,0.00,5,WeatherCatV1.15B25,2013-05-13 12:02:00,
2013-05-13 06:07:00,38.3,27.6,30.32,NW,311,0.0,0.0,65,0.00,,,0.00,9,WeatherCatV1.15B25,2013-05-13 12:07:00,
2013-05-13 06:12:00,38.3,28.3,30.32,NW,311,1.0,3.0,67,0.00,,,0.00,19,WeatherCatV1.15B25,2013-05-13 12:12:00,
2013-05-13 06:17:00,38.6,28.2,30.33,NW,311,0.0,3.0,66,0.00,,,0.00,25,WeatherCatV1.15B25,2013-05-13 12:17:00,
2013-05-13 06:22:00,38.8,28.4,30.33,NW,311,0.0,0.0,66,0.00,,,0.00,32,WeatherCatV1.15B25,2013-05-13 12:22:00,
2013-05-13 06:27:00,38.9,28.5,30.33,NW,311,0.0,0.0,66,0.00,,,0.00,39,WeatherCatV1.15B25,2013-05-13 12:27:00,
2013-05-13 06:32:00,39.1,29.1,30.33,NW,311,0.0,0.0,67,0.00,,,0.00,46,WeatherCatV1.15B25,2013-05-13 12:32:00,
2013-05-13 06:37:00,39.3,28.9,30.33,NW,311,0.0,0.0,66,0.00,,,0.00,62,WeatherCatV1.15B25,2013-05-13 12:37:00,
2013-05-13 06:42:00,39.9,29.5,30.33,NW,311,0.0,0.0,66,0.00,,,0.00,70,WeatherCatV1.15B25,2013-05-13 12:42:00,
2013-05-13 06:47:00,40.3,30.6,30.34,NW,311,0.0,0.0,68,0.00,,,0.00,83,WeatherCatV1.15B25,2013-05-13 12:47:00,
2013-05-13 06:52:00,40.8,31.1,30.34,NW,311,0.0,0.0,68,0.00,,,0.00,100,WeatherCatV1.15B25,2013-05-13 12:52:00,
2013-05-13 06:57:00,41.3,30.1,30.34,NW,311,0.0,0.0,64,0.00,,,0.00,116,WeatherCatV1.15B25,2013-05-13 12:57:00,
2013-05-13 07:02:00,42.1,31.6,30.34,NW,311,0.0,0.0,66,0.00,,,0.00,141,WeatherCatV1.15B25,2013-05-13 13:02:00,
2013-05-13 07:07:00,42.9,32.7,30.34,NW,311,0.0,0.0,67,0.00,,,0.00,164,WeatherCatV1.15B25,2013-05-13 13:07:00,
2013-05-13 07:12:00,44.1,31.9,30.34,NW,311,0.0,0.0,62,0.00,,,0.00,176,WeatherCatV1.15B25,2013-05-13 13:12:00,
2013-05-13 07:17:00,44.9,32.3,30.35,NW,311,0.0,0.0,61,0.00,,,0.00,187,WeatherCatV1.15B25,2013-05-13 13:17:00,
2013-05-13 07:22:00,46.0,31.2,30.35,NW,311,0.0,0.0,56,0.00,,,0.00,192,WeatherCatV1.15B25,2013-05-13 13:22:00,
2013-05-13 07:27:00,46.7,31.8,30.35,NW,311,0.0,0.0,56,0.00,,,0.00,218,WeatherCatV1.15B25,2013-05-13 13:27:00,
2013-05-13 07:32:00,47.6,31.3,30.35,NW,311,0.0,0.0,53,0.00,,,0.00,238,WeatherCatV1.15B25,2013-05-13 13:32:00,
2013-05-13 07:37:00,48.5,33.1,30.35,NW,311,0.0,0.0,55,0.00,,,0.00,241,WeatherCatV1.15B25,2013-05-13 13:37:00,
2013-05-13 07:42:00,49.2,32.8,30.35,NW,311,0.0,0.0,53,0.00,,,0.00,234,WeatherCatV1.15B25,2013-05-13 13:42:00,
2013-05-13 07:47:00,49.9,32.0,30.35,NW,311,0.0,0.0,50,0.00,,,0.00,266,WeatherCatV1.15B25,2013-05-13 13:47:00,
2013-05-13 07:52:00,50.7,31.2,30.35,NW,311,0.0,0.0,47,0.00,,,0.00,299,WeatherCatV1.15B25,2013-05-13 13:52:00,
2013-05-13 07:57:00,51.4,32.9,30.35,NW,311,0.0,0.0,49,0.00,,,0.00,324,WeatherCatV1.15B25,2013-05-13 13:57:00,
2013-05-13 08:02:00,52.2,31.5,30.35,NW,311,0.0,0.0,45,0.00,,,0.00,341,WeatherCatV1.15B25,2013-05-13 14:02:00,
2013-05-13 08:07:00,52.8,30.9,30.35,NW,311,0.0,0.0,43,0.00,,,0.00,357,WeatherCatV1.15B25,2013-05-13 14:07:00,
2013-05-13 08:12:00,53.5,30.4,30.35,NW,311,0.0,0.0,41,0.00,,,0.00,368,WeatherCatV1.15B25,2013-05-13 14:12:00,
2013-05-13 08:17:00,53.9,30.7,30.35,NW,311,0.0,0.0,41,0.00,,,0.00,391,WeatherCatV1.15B25,2013-05-13 14:17:00,
2013-05-13 08:22:00,54.5,31.9,30.35,NW,311,0.0,0.0,42,0.00,,,0.00,375,WeatherCatV1.15B25,2013-05-13 14:22:00,
2013-05-13 08:27:00,55.4,30.2,30.35,NW,311,0.0,0.0,38,0.00,,,0.00,450,WeatherCatV1.15B25,2013-05-13 14:27:00,
2013-05-13 08:32:00,56.2,30.9,30.35,NW,311,0.0,0.0,38,0.00,,,0.00,482,WeatherCatV1.15B25,2013-05-13 14:32:00,
2013-05-13 08:37:00,56.9,30.2,30.35,NW,311,0.0,0.0,36,0.00,,,0.00,494,WeatherCatV1.15B25,2013-05-13 14:37:00,
2013-05-13 08:42:00,57.5,30.1,30.35,NW,311,0.0,0.0,35,0.00,,,0.00,505,WeatherCatV1.15B25,2013-05-13 14:42:00,
2013-05-13 08:47:00,57.8,30.3,30.35,NW,309,0.0,3.0,35,0.00,,,0.00,514,WeatherCatV1.15B25,2013-05-13 14:47:00,
2013-05-13 08:52:00,58.1,30.6,30.35,NW,309,0.0,0.0,35,0.00,,,0.00,528,WeatherCatV1.15B25,2013-05-13 14:52:00,
2013-05-13 08:57:00,58.6,31.0,30.35,WNW,288,4.0,5.0,35,0.00,,,0.00,542,WeatherCatV1.15B25,2013-05-13 14:57:00,
2013-05-13 09:02:00,58.6,33.1,30.35,WNW,287,0.0,1.0,38,0.00,,,0.00,565,WeatherCatV1.15B25,2013-05-13 15:02:00,
2013-05-13 09:07:00,58.6,32.4,30.35,SW,227,1.0,6.0,37,0.00,,,0.00,556,WeatherCatV1.15B25,2013-05-13 15:07:00,
2013-05-13 09:12:00,58.7,30.4,30.35,SW,222,3.0,7.0,34,0.00,,,0.00,607,WeatherCatV1.15B25,2013-05-13 15:12:00,
2013-05-13 09:17:00,59.2,31.6,30.35,SW,222,1.0,3.0,35,0.00,,,0.00,596,WeatherCatV1.15B25,2013-05-13 15:17:00,
2013-05-13 09:22:00,59.6,32.6,30.35,SSW,193,5.0,9.0,36,0.00,,,0.00,588,WeatherCatV1.15B25,2013-05-13 15:22:00,
2013-05-13 09:27:00,60.2,32.4,30.35,South,188,5.0,7.0,35,0.00,,,0.00,644,WeatherCatV1.15B25,2013-05-13 15:27:00,
2013-05-13 09:32:00,61.0,32.4,30.35,South,185,4.0,6.0,34,0.00,,,0.00,693,WeatherCatV1.15B25,2013-05-13 15:32:00,
2013-05-13 09:37:00,61.3,32.7,30.35,South,179,0.0,6.0,34,0.00,,,0.00,691,WeatherCatV1.15B25,2013-05-13 15:37:00,
2013-05-13 09:42:00,62.0,32.6,30.35,SSE,158,0.0,8.0,33,0.00,,,0.00,683,WeatherCatV1.15B25,2013-05-13 15:42:00,
2013-05-13 09:47:00,62.4,32.9,30.34,SE,130,1.0,7.0,33,0.00,,,0.00,686,WeatherCatV1.15B25,2013-05-13 15:47:00,
2013-05-13 09:52:00,62.7,31.6,30.34,ESE,116,1.0,6.0,31,0.00,,,0.00,702,WeatherCatV1.15B25,2013-05-13 15:52:00,
2013-05-13 09:56:00,63.1,32.0,30.34,ESE,112,5.0,7.0,31,0.00,,,0.00,713,WeatherCatV1.15B25,2013-05-13 15:56:00,
2013-05-13 10:01:00,63.2,31.3,30.34,ESE,116,0.0,8.0,30,0.00,,,0.00,753,WeatherCatV1.15B25,2013-05-13 16:01:00,
2013-05-13 10:06:00,63.5,32.3,30.34,East,99,6.0,8.0,31,0.00,,,0.00,758,WeatherCatV1.15B25,2013-05-13 16:06:00,
2013-05-13 10:11:00,64.0,32.8,30.34,ESE,107,5.0,8.0,31,0.00,,,0.00,795,WeatherCatV1.15B25,2013-05-13 16:11:00,
2013-05-13 10:16:00,64.5,31.5,30.34,East,97,6.0,10.0,29,0.00,,,0.00,771,WeatherCatV1.15B25,2013-05-13 16:16:00,
2013-05-13 10:21:00,64.3,32.2,30.34,ESE,114,7.0,12.0,30,0.00,,,0.00,797,WeatherCatV1.15B25,2013-05-13 16:21:00,
2013-05-13 10:26:00,64.8,31.8,30.34,East,99,5.0,7.0,29,0.00,,,0.00,794,WeatherCatV1.15B25,2013-05-13 16:26:00,
2013-05-13 10:31:00,65.2,32.1,30.34,East,88,7.0,10.0,29,0.00,,,0.00,801,WeatherCatV1.15B25,2013-05-13 16:31:00,
2013-05-13 10:36:00,65.5,31.5,30.34,ESE,121,3.0,11.0,28,0.00,,,0.00,825,WeatherCatV1.15B25,2013-05-13 16:36:00,
2013-05-13 10:41:00,65.5,31.5,30.34,East,95,4.0,6.0,28,0.00,,,0.00,818,WeatherCatV1.15B25,2013-05-13 16:41:00,
2013-05-13 10:46:00,66.4,31.4,30.34,East,92,3.0,12.0,27,0.00,,,0.00,822,WeatherCatV1.15B25,2013-05-13 16:46:00,
2013-05-13 10:51:00,66.6,30.6,30.34,ESE,109,9.0,11.0,26,0.00,,,0.00,822,WeatherCatV1.15B25,2013-05-13 16:51:00,
2013-05-13 10:56:00,66.6,31.6,30.34,ESE,103,7.0,7.0,27,0.00,,,0.00,815,WeatherCatV1.15B25,2013-05-13 16:56:00,
2013-05-13 11:01:00,66.6,29.7,30.34,East,93,5.0,9.0,25,0.00,,,0.00,871,WeatherCatV1.15B25,2013-05-13 17:01:00,
2013-05-13 11:06:00,66.9,28.9,30.34,East,99,0.0,3.0,24,0.00,,,0.00,866,WeatherCatV1.15B25,2013-05-13 17:06:00,
2013-05-13 11:11:00,66.8,29.8,30.34,ESE,102,7.0,8.0,25,0.00,,,0.00,878,WeatherCatV1.15B25,2013-05-13 17:11:00,
2013-05-13 11:16:00,67.4,30.4,30.34,ESE,110,7.0,7.0,25,0.00,,,0.00,882,WeatherCatV1.15B25,2013-05-13 17:16:00,
2013-05-13 11:21:00,67.1,30.1,30.34,ESE,117,8.0,9.0,25,0.00,,,0.00,867,WeatherCatV1.15B25,2013-05-13 17:21:00,
2013-05-13 11:26:00,67.3,31.2,30.34,ESE,104,5.0,7.0,26,0.00,,,0.00,908,WeatherCatV1.15B25,2013-05-13 17:26:00,
2013-05-13 11:31:00,67.6,30.5,30.34,East,97,5.0,7.0,25,0.00,,,0.00,908,WeatherCatV1.15B25,2013-05-13 17:31:00,
2013-05-13 11:36:00,67.4,30.4,30.34,ESE,119,6.0,6.0,25,0.00,,,0.00,896,WeatherCatV1.15B25,2013-05-13 17:36:00,
2013-05-13 11:41:00,68.1,29.9,30.34,SE,127,3.0,5.0,24,0.00,,,0.00,890,WeatherCatV1.15B25,2013-05-13 17:41:00,
2013-05-13 11:46:00,68.4,30.2,30.34,ESE,109,0.0,2.0,24,0.00,,,0.00,973,WeatherCatV1.15B25,2013-05-13 17:46:00,
2013-05-13 11:51:00,68.8,31.5,30.34,ESE,106,5.0,7.0,25,0.00,,,0.00,1010,WeatherCatV1.15B25,2013-05-13 17:51:00,
2013-05-13 11:56:00,69.1,29.7,30.34,East,86,0.0,6.0,23,0.00,,,0.00,1050,WeatherCatV1.15B25,2013-05-13 17:56:00,
2013-05-13 12:01:00,69.9,29.3,30.33,ESE,102,5.0,5.0,22,0.00,,,0.00,1091,WeatherCatV1.15B25,2013-05-13 18:01:00,
2013-05-13 12:06:00,69.8,28.1,30.33,ESE,121,7.0,12.0,21,0.00,,,0.00,1145,WeatherCatV1.15B25,2013-05-13 18:06:00,
2013-05-13 12:11:00,69.3,26.5,30.33,ESE,104,0.0,0.0,20,0.00,,,0.00,568,WeatherCatV1.15B25,2013-05-13 18:11:00,
2013-05-13 12:16:00,69.3,27.7,30.33,ENE,78,2.0,6.0,21,0.00,,,0.00,456,WeatherCatV1.15B25,2013-05-13 18:16:00,
2013-05-13 12:21:00,68.8,26.1,30.33,NE,45,0.0,3.0,20,0.00,,,0.00,468,WeatherCatV1.15B25,2013-05-13 18:21:00,
2013-05-13 12:26:00,68.4,25.8,30.33,NNE,23,6.0,7.0,20,0.00,,,0.00,723,WeatherCatV1.15B25,2013-05-13 18:26:00,
2013-05-13 12:31:00,69.1,27.5,30.32,North,354,8.0,11.0,21,0.00,,,0.00,769,WeatherCatV1.15B25,2013-05-13 18:31:00,
2013-05-13 12:36:00,68.6,30.4,30.32,North,359,19.0,20.0,24,0.00,,,0.00,672,WeatherCatV1.15B25,2013-05-13 18:36:00,
2013-05-13 12:41:00,67.9,28.7,30.32,North,356,10.0,16.0,23,0.00,,,0.00,421,WeatherCatV1.15B25,2013-05-13 18:41:00,
2013-05-13 12:46:00,67.3,29.3,30.32,NW,320,10.0,15.0,24,0.00,,,0.00,572,WeatherCatV1.15B25,2013-05-13 18:46:00,
2013-05-13 12:51:00,67.8,27.6,30.32,North,349,4.0,11.0,22,0.00,,,0.00,901,WeatherCatV1.15B25,2013-05-13 18:51:00,
2013-05-13 12:56:00,68.6,29.3,30.32,NNW,340,5.0,9.0,23,0.00,,,0.00,901,WeatherCatV1.15B25,2013-05-13 18:56:00,
2013-05-13 13:01:00,68.9,29.6,30.32,NNW,343,3.0,3.0,23,0.00,,,0.00,475,WeatherCatV1.15B25,2013-05-13 19:01:00,
2013-05-13 13:06:00,69.6,26.8,30.32,East,85,6.0,8.0,20,0.00,,,0.00,1031,WeatherCatV1.15B25,2013-05-13 19:06:00,
2013-05-13 13:11:00,69.9,29.3,30.32,East,86,2.0,6.0,22,0.00,,,0.00,982,WeatherCatV1.15B25,2013-05-13 19:11:00,
2013-05-13 13:16:00,70.4,27.4,30.31,SW,232,5.0,6.0,20,0.00,,,0.00,929,WeatherCatV1.15B25,2013-05-13 19:16:00,
2013-05-13 13:21:00,71.1,30.3,30.31,WSW,241,0.0,7.0,22,0.00,,,0.00,876,WeatherCatV1.15B25,2013-05-13 19:21:00,
2013-05-13 13:26:00,71.1,29.2,30.31,SSE,168,1.0,10.0,21,0.00,,,0.00,794,WeatherCatV1.15B25,2013-05-13 19:26:00,
2013-05-13 13:31:00,70.8,27.7,30.31,ESE,103,1.0,2.0,20,0.00,,,0.00,421,WeatherCatV1.15B25,2013-05-13 19:31:00,
2013-05-13 13:36:00,70.8,28.9,30.31,SSE,151,8.0,8.0,21,0.00,,,0.00,1012,WeatherCatV1.15B25,2013-05-13 19:36:00,
2013-05-13 13:41:00,70.6,29.9,30.31,SE,134,2.0,8.0,22,0.00,,,0.00,1024,WeatherCatV1.15B25,2013-05-13 19:41:00,
2013-05-13 13:46:00,69.6,29.1,30.30,SE,124,13.0,13.0,22,0.00,,,0.00,315,WeatherCatV1.15B25,2013-05-13 19:46:00,
2013-05-13 13:51:00,68.6,29.3,30.30,ESE,119,6.0,11.0,23,0.00,,,0.00,466,WeatherCatV1.15B25,2013-05-13 19:51:00,
2013-05-13 13:56:00,68.9,28.5,30.30,East,83,6.0,11.0,22,0.00,,,0.00,359,WeatherCatV1.15B25,2013-05-13 19:56:00,
2013-05-13 14:01:00,69.6,27.9,30.29,ENE,73,0.0,6.0,21,0.00,,,0.00,466,WeatherCatV1.15B25,2013-05-13 20:01:00,
2013-05-13 14:06:00,69.6,26.8,30.29,ENE,69,0.0,5.0,20,0.00,,,0.00,269,WeatherCatV1.15B25,2013-05-13 20:06:00,
2013-05-13 14:11:00,69.1,28.7,30.29,SSE,147,3.0,6.0,22,0.00,,,0.00,241,WeatherCatV1.15B25,2013-05-13 20:11:00,
2013-05-13 14:16:00,68.8,29.5,30.29,SE,131,13.0,13.0,23,0.00,,,0.00,223,WeatherCatV1.15B25,2013-05-13 20:16:00,
2013-05-13 14:21:00,68.1,27.8,30.29,SSE,155,4.0,6.0,22,0.00,,,0.00,204,WeatherCatV1.15B25,2013-05-13 20:21:00,
2013-05-13 14:26:00,67.6,27.4,30.29,SSE,160,7.0,7.0,22,0.00,,,0.00,181,WeatherCatV1.15B25,2013-05-13 20:26:00,
2013-05-13 14:31:00,67.6,28.5,30.29,SSE,160,0.0,0.0,23,0.00,,,0.00,162,WeatherCatV1.15B25,2013-05-13 20:31:00,
2013-05-13 14:36:00,67.6,28.5,30.29,WNW,302,11.0,12.0,23,0.00,,,0.00,148,WeatherCatV1.15B25,2013-05-13 20:36:00,
2013-05-13 14:41:00,66.4,30.5,30.29,NNW,335,14.0,14.0,26,0.00,,,0.00,137,WeatherCatV1.15B25,2013-05-13 20:41:00,
2013-05-13 14:46:00,63.2,35.1,30.31,North,350,7.0,11.0,35,0.00,,,0.00,132,WeatherCatV1.15B25,2013-05-13 20:46:00,
2013-05-13 14:51:00,62.1,33.4,30.31,NE,34,5.0,11.0,34,0.00,,,0.00,130,WeatherCatV1.15B25,2013-05-13 20:51:00,
2013-05-13 14:56:00,62.3,30.5,30.31,ENE,66,12.0,18.0,30,0.00,,,0.00,130,WeatherCatV1.15B25,2013-05-13 20:56:00,
2013-05-13 15:01:00,62.6,29.0,30.30,NE,54,1.0,6.0,28,0.00,,,0.00,146,WeatherCatV1.15B25,2013-05-13 21:01:00,
2013-05-13 15:06:00,62.9,28.4,30.30,NE,56,4.0,10.0,27,0.00,,,0.00,162,WeatherCatV1.15B25,2013-05-13 21:06:00,
2013-05-13 15:11:00,63.2,30.4,30.30,NE,41,13.0,15.0,29,0.00,,,0.00,181,WeatherCatV1.15B25,2013-05-13 21:11:00,
2013-05-13 15:16:00,63.4,29.7,30.30,ESE,117,0.0,3.0,28,0.00,,,0.00,201,WeatherCatV1.15B25,2013-05-13 21:16:00,
2013-05-13 15:21:00,63.7,30.0,30.30,ENE,78,3.0,7.0,28,0.00,,,0.00,204,WeatherCatV1.15B25,2013-05-13 21:21:00,
2013-05-13 15:26:00,64.0,29.4,30.30,NE,40,7.0,10.0,27,0.00,,,0.00,211,WeatherCatV1.15B25,2013-05-13 21:26:00,
2013-05-13 15:31:00,64.3,28.7,30.30,East,100,3.0,6.0,26,0.00,,,0.00,208,WeatherCatV1.15B25,2013-05-13 21:31:00,
2013-05-13 15:36:00,64.7,30.8,30.30,NNE,28,6.0,10.0,28,0.00,,,0.00,202,WeatherCatV1.15B25,2013-05-13 21:36:00,
2013-05-13 15:41:00,64.7,29.0,30.30,NNE,18,6.0,12.0,26,0.00,,,0.00,199,WeatherCatV1.15B25,2013-05-13 21:41:00,
2013-05-13 15:46:00,64.5,29.8,30.30,North,7,6.0,7.0,27,0.00,,,0.00,220,WeatherCatV1.15B25,2013-05-13 21:46:00,
2013-05-13 15:51:00,64.8,30.0,30.30,NNE,28,1.0,6.0,27,0.00,,,0.00,292,WeatherCatV1.15B25,2013-05-13 21:51:00,
2013-05-13 15:56:00,65.0,30.2,30.30,NNE,23,3.0,6.0,27,0.00,,,0.00,394,WeatherCatV1.15B25,2013-05-13 21:56:00,
2013-05-13 16:01:00,65.2,29.5,30.29,NE,54,0.0,6.0,26,0.00,,,0.00,422,WeatherCatV1.15B25,2013-05-13 22:01:00,
2013-05-13 16:06:00,65.6,28.8,30.29,East,82,0.0,6.0,25,0.00,,,0.00,334,WeatherCatV1.15B25,2013-05-13 22:06:00,
2013-05-13 16:11:00,66.1,29.3,30.29,East,99,0.0,1.0,25,0.00,,,0.00,306,WeatherCatV1.15B25,2013-05-13 22:11:00,
2013-05-13 16:16:00,66.3,28.4,30.30,East,99,5.0,5.0,24,0.00,,,0.00,255,WeatherCatV1.15B25,2013-05-13 22:16:00,
2013-05-13 16:21:00,66.3,28.4,30.30,East,99,0.0,0.0,24,0.00,,,0.00,222,WeatherCatV1.15B25,2013-05-13 22:21:00,
2013-05-13 16:26:00,65.8,29.0,30.30,East,99,0.0,5.0,25,0.00,,,0.00,194,WeatherCatV1.15B25,2013-05-13 22:26:00,
2013-05-13 16:31:00,65.5,28.7,30.30,SE,134,5.0,12.0,25,0.00,,,0.00,199,WeatherCatV1.15B25,2013-05-13 22:31:00,
2013-05-13 16:36:00,64.8,29.1,30.30,SSE,154,2.0,5.0,26,0.00,,,0.00,179,WeatherCatV1.15B25,2013-05-13 22:36:00,
2013-05-13 16:41:00,64.7,29.0,30.30,South,174,0.0,7.0,26,0.00,,,0.00,208,WeatherCatV1.15B25,2013-05-13 22:41:00,
2013-05-13 16:46:00,64.8,30.9,30.30,SSE,160,0.0,0.0,28,0.00,,,0.00,269,WeatherCatV1.15B25,2013-05-13 22:46:00,
2013-05-13 16:51:00,65.2,30.4,30.30,SE,128,0.0,1.0,27,0.00,,,0.00,306,WeatherCatV1.15B25,2013-05-13 22:51:00,
2013-05-13 16:56:00,65.5,31.5,30.30,SE,124,3.0,6.0,28,0.00,,,0.00,324,WeatherCatV1.15B25,2013-05-13 22:56:00,
2013-05-13 17:01:00,65.6,29.8,30.29,ESE,113,6.0,6.0,26,0.00,,,0.00,333,WeatherCatV1.15B25,2013-05-13 23:01:00,
2013-05-13 17:06:00,65.6,30.7,30.29,ESE,120,1.0,6.0,27,0.00,,,0.00,334,WeatherCatV1.15B25,2013-05-13 23:06:00,
2013-05-13 17:11:00,65.6,29.8,30.29,ESE,120,0.0,0.0,26,0.00,,,0.00,345,WeatherCatV1.15B25,2013-05-13 23:11:00,
2013-05-13 17:16:00,65.6,29.8,30.29,ESE,120,0.0,0.0,26,0.00,,,0.00,406,WeatherCatV1.15B25,2013-05-13 23:16:00,
2013-05-13 17:21:00,66.3,30.4,30.29,ESE,120,0.0,6.0,26,0.00,,,0.00,512,WeatherCatV1.15B25,2013-05-13 23:21:00,
2013-05-13 17:26:00,66.4,30.5,30.29,SSE,152,5.0,8.0,26,0.00,,,0.00,531,WeatherCatV1.15B25,2013-05-13 23:26:00,
2013-05-13 17:31:00,66.4,31.4,30.29,ESE,106,0.0,6.0,27,0.00,,,0.00,521,WeatherCatV1.15B25,2013-05-13 23:31:00,
2013-05-13 17:36:00,66.9,31.8,30.29,ESE,106,5.0,7.0,27,0.00,,,0.00,505,WeatherCatV1.15B25,2013-05-13 23:36:00,
2013-05-13 17:41:00,67.3,30.3,30.29,SSE,154,6.0,9.0,25,0.00,,,0.00,457,WeatherCatV1.15B25,2013-05-13 23:41:00,
2013-05-13 17:46:00,67.1,32.0,30.29,East,80,4.0,5.0,27,0.00,,,0.00,406,WeatherCatV1.15B25,2013-05-13 23:46:00,
2013-05-13 17:51:00,67.1,30.1,30.29,SE,133,3.0,11.0,25,0.00,,,0.00,392,WeatherCatV1.15B25,2013-05-13 23:51:00,
2013-05-13 17:56:00,66.8,29.8,30.29,SE,128,6.0,7.0,25,0.00,,,0.00,354,WeatherCatV1.15B25,2013-05-13 23:56:00,
2013-05-13 18:01:00,66.6,30.6,30.29,SE,127,1.0,2.0,26,0.00,,,0.00,334,WeatherCatV1.15B25,2013-05-14 00:01:00,
2013-05-13 18:06:00,66.4,30.5,30.29,SE,127,0.0,0.0,26,0.00,,,0.00,299,WeatherCatV1.15B25,2013-05-14 00:06:00,
2013-05-13 18:11:00,66.8,31.7,30.29,NNW,347,3.0,6.0,27,0.00,,,0.00,213,WeatherCatV1.15B25,2013-05-14 00:11:00,
2013-05-13 18:16:00,66.4,30.5,30.29,NW,308,2.0,5.0,26,0.00,,,0.00,248,WeatherCatV1.15B25,2013-05-14 00:16:00,
2013-05-13 18:21:00,66.3,30.4,30.29,NW,304,0.0,0.0,26,0.00,,,0.00,218,WeatherCatV1.15B25,2013-05-14 00:21:00,
2013-05-13 18:26:00,66.4,31.4,30.29,NW,325,0.0,3.0,27,0.00,,,0.00,259,WeatherCatV1.15B25,2013-05-14 00:26:00,
2013-05-13 18:31:00,66.6,30.6,30.28,NW,325,0.0,0.0,26,0.00,,,0.00,223,WeatherCatV1.15B25,2013-05-14 00:31:00,
2013-05-13 18:36:00,66.6,30.6,30.28,NW,325,0.0,1.0,26,0.00,,,0.00,195,WeatherCatV1.15B25,2013-05-14 00:36:00,
2013-05-13 18:41:00,66.1,30.2,30.28,WSW,251,5.0,7.0,26,0.00,,,0.00,176,WeatherCatV1.15B25,2013-05-14 00:41:00,
2013-05-13 18:46:00,65.6,29.8,30.28,WSW,248,5.0,5.0,26,0.00,,,0.00,150,WeatherCatV1.15B25,2013-05-14 00:46:00,
2013-05-13 18:51:00,65.2,29.5,30.28,WSW,247,6.0,7.0,26,0.00,,,0.00,128,WeatherCatV1.15B25,2013-05-14 00:51:00,
2013-05-13 18:56:00,64.3,29.6,30.28,NW,306,4.0,14.0,27,0.00,,,0.00,114,WeatherCatV1.15B25,2013-05-14 00:56:00,
2013-05-13 19:01:00,63.7,30.0,30.29,SW,233,5.0,11.0,28,0.00,,,0.00,100,WeatherCatV1.15B25,2013-05-14 01:01:00,
2013-05-13 19:06:00,62.9,30.2,30.29,West,267,1.0,6.0,29,0.00,,,0.00,88,WeatherCatV1.15B25,2013-05-14 01:06:00,
2013-05-13 19:11:00,62.6,31.5,30.29,NW,323,0.0,7.0,31,0.00,,,0.00,77,WeatherCatV1.15B25,2013-05-14 01:11:00,
2013-05-13 19:16:00,62.3,32.1,30.29,NW,320,2.0,7.0,32,0.00,,,0.00,65,WeatherCatV1.15B25,2013-05-14 01:16:00,
2013-05-13 19:21:00,62.0,31.0,30.29,NW,316,6.0,8.0,31,0.00,,,0.00,56,WeatherCatV1.15B25,2013-05-14 01:21:00,
2013-05-13 19:26:00,61.6,31.5,30.29,NW,312,2.0,7.0,32,0.00,,,0.00,49,WeatherCatV1.15B25,2013-05-14 01:26:00,
2013-05-13 19:31:00,61.5,31.4,30.29,NW,308,0.0,6.0,32,0.00,,,0.00,39,WeatherCatV1.15B25,2013-05-14 01:31:00,
2013-05-13 19:36:00,61.2,31.1,30.29,NW,308,2.0,6.0,32,0.00,,,0.00,37,WeatherCatV1.15B25,2013-05-14 01:36:00,
2013-05-13 19:41:00,61.0,30.9,30.29,NW,308,0.0,5.0,32,0.00,,,0.00,32,WeatherCatV1.15B25,2013-05-14 01:41:00,
2013-05-13 19:46:00,60.7,31.4,30.29,NW,308,0.0,0.0,33,0.00,,,0.00,23,WeatherCatV1.15B25,2013-05-14 01:46:00,
2013-05-13 19:51:00,60.2,32.4,30.29,NW,308,0.0,0.0,35,0.00,,,0.00,18,WeatherCatV1.15B25,2013-05-14 01:51:00,
2013-05-13 19:56:00,59.8,32.8,30.29,NW,308,0.0,2.0,36,0.00,,,0.00,12,WeatherCatV1.15B25,2013-05-14 01:56:00,
2013-05-13 20:01:00,59.2,32.3,30.29,NW,308,0.0,0.0,36,0.00,,,0.00,9,WeatherCatV1.15B25,2013-05-14 02:01:00,
2013-05-13 20:06:00,58.6,32.4,30.29,NW,308,0.0,2.0,37,0.00,,,0.00,5,WeatherCatV1.15B25,2013-05-14 02:06:00,
2013-05-13 20:11:00,58.1,33.9,30.29,NW,308,0.0,0.0,40,0.00,,,0.00,0,WeatherCatV1.15B25,2013-05-14 02:11:00,
2013-05-13 20:16:00,57.2,31.8,30.29,NW,308,2.0,7.0,38,0.00,,,0.00,0,WeatherCatV1.15B25,2013-05-14 02:16:00,
2013-05-13 20:21:00,56.7,32.0,30.29,WNW,302,4.0,8.0,39,0.00,,,0.00,5,WeatherCatV1.15B25,2013-05-14 02:21:00,
2013-05-13 20:26:00,56.5,32.5,30.29,WNW,291,8.0,10.0,40,0.00,,,0.00,0,WeatherCatV1.15B25,2013-05-14 02:26:00,
2013-05-13 20:31:00,56.2,32.2,30.29,WNW,296,5.0,10.0,40,0.00,,,0.00,0,WeatherCatV1.15B25,2013-05-14 02:31:00,
2013-05-13 20:36:00,55.9,31.9,30.29,WNW,294,6.0,12.0,40,0.00,,,0.00,0,WeatherCatV1.15B25,2013-05-14 02:36:00,
2013-05-13 20:41:00,55.4,31.5,30.29,WNW,291,9.0,12.0,40,0.00,,,0.00,0,WeatherCatV1.15B25,2013-05-14 02:41:00,
2013-05-13 20:46:00,55.1,31.8,30.29,NW,304,8.0,11.0,41,0.00,,,0.00,0,WeatherCatV1.15B25,2013-05-14 02:46:00,
2013-05-13 20:51:00,54.5,31.3,30.29,WNW,301,8.0,13.0,41,0.00,,,0.00,0,WeatherCatV1.15B25,2013-05-14 02:51:00,
2013-05-13 20:56:00,54.1,31.5,30.29,NW,304,6.0,12.0,42,0.00,,,0.00,0,WeatherCatV1.15B25,2013-05-14 02:56:00,
2013-05-13 21:01:00,53.8,31.3,30.29,WNW,294,7.0,12.0,42,0.00,,,0.00,0,WeatherCatV1.15B25,2013-05-14 03:01:00,
2013-05-13 21:06:00,53.3,30.8,30.29,NW,315,7.0,12.0,42,0.00,,,0.00,0,WeatherCatV1.15B25,2013-05-14 03:06:00,
2013-05-13 21:11:00,53.2,31.3,30.29,WNW,291,9.0,10.0,43,0.00,,,0.00,0,WeatherCatV1.15B25,2013-05-14 03:11:00,
2013-05-13 21:16:00,52.9,31.0,30.29,NW,312,12.0,13.0,43,0.00,,,0.00,0,WeatherCatV1.15B25,2013-05-14 03:16:00,
2013-05-13 21:21:00,53.1,30.6,30.29,NW,318,10.0,14.0,42,0.00,,,0.00,0,WeatherCatV1.15B25,2013-05-14 03:21:00,
2013-05-13 21:26:00,53.2,30.7,30.29,WNW,294,8.0,11.0,42,0.00,,,0.00,0,WeatherCatV1.15B25,2013-05-14 03:26:00,
2013-05-13 21:31:00,53.3,30.8,30.29,WNW,288,5.0,12.0,42,0.00,,,0.00,0,WeatherCatV1.15B25,2013-05-14 03:31:00,
2013-05-13 21:36:00,53.5,31.0,30.29,West,280,10.0,12.0,42,0.00,,,0.00,0,WeatherCatV1.15B25,2013-05-14 03:36:00,
2013-05-13 21:41:00,53.5,31.0,30.29,WNW,296,10.0,15.0,42,0.00,,,0.00,0,WeatherCatV1.15B25,2013-05-14 03:41:00,
2013-05-13 21:46:00,53.3,30.8,30.29,WNW,285,12.0,14.0,42,0.00,,,0.00,0,WeatherCatV1.15B25,2013-05-14 03:46:00,
2013-05-13 21:51:00,53.2,31.3,30.29,NW,320,7.0,16.0,43,0.00,,,0.00,0,WeatherCatV1.15B25,2013-05-14 03:51:00,
2013-05-13 21:56:00,53.1,31.2,30.29,NW,312,7.0,13.0,43,0.00,,,0.00,0,WeatherCatV1.15B25,2013-05-14 03:56:00,
2013-05-13 22:01:00,52.9,31.6,30.29,NW,312,11.0,16.0,44,0.00,,,0.00,0,WeatherCatV1.15B25,2013-05-14 04:01:00,
2013-05-13 22:05:00,52.9,31.6,30.29,NW,310,9.0,16.0,44,0.00,,,0.00,0,WeatherCatV1.15B25,2013-05-14 04:05:00,
2013-05-13 22:06:00,52.9,31.0,30.29,WNW,292,7.0,14.0,43,0.00,,,0.00,0,WeatherCatV1.15B25,2013-05-14 04:06:00,
2013-05-13 22:10:00,52.9,31.0,30.29,NW,309,10.0,14.0,43,0.00,,,0.00,0,WeatherCatV1.15B25,2013-05-14 04:10:00,
2013-05-13 22:15:00,52.9,31.0,30.29,NW,309,10.0,14.0,43,0.00,,,0.00,0,WeatherCatV1.15B25,2013-05-14 04:15:00,
2013-05-13 22:20:00,52.8,31.5,30.29,WNW,292,10.0,14.0,44,0.00,,,0.00,0,WeatherCatV1.15B25,2013-05-14 04:20:00,
2013-05-13 22:25:00,52.8,31.5,30.29,WNW,292,10.0,14.0,44,0.00,,,0.00,0,WeatherCatV1.15B25,2013-05-14 04:25:00,
2013-05-13 22:30:00,52.8,31.5,30.29,WNW,292,10.0,14.0,44,0.00,,,0.00,0,WeatherCatV1.15B25,2013-05-14 04:30:00,
2013-05-13 22:35:00,52.6,31.3,30.29,WNW,292,8.0,13.0,44,0.00,,,0.00,0,WeatherCatV1.15B25,2013-05-14 04:35:00,
2013-05-13 22:40:00,52.6,31.3,30.29,WNW,292,8.0,13.0,44,0.00,,,0.00,0,WeatherCatV1.15B25,2013-05-14 04:40:00,
2013-05-13 22:45:00,52.6,31.3,30.29,WNW,292,8.0,13.0,44,0.00,,,0.00,0,WeatherCatV1.15B25,2013-05-14 04:45:00,
2013-05-13 22:50:00,53.3,30.8,30.29,WNW,292,8.0,13.0,42,0.00,,,0.00,0,WeatherCatV1.15B25,2013-05-14 04:50:00,
2013-05-13 22:55:00,53.3,30.8,30.29,WNW,292,8.0,13.0,42,0.00,,,0.00,0,WeatherCatV1.15B25,2013-05-14 04:55:00,
2013-05-13 23:00:00,53.3,30.8,30.29,WNW,292,8.0,13.0,42,0.00,,,0.00,0,WeatherCatV1.15B25,2013-05-14 05:00:00,
2013-05-13 23:05:00,52.8,31.5,30.29,NW,315,7.0,13.0,44,0.00,,,0.00,0,WeatherCatV1.15B25,2013-05-14 05:05:00,
2013-05-13 23:10:00,52.8,31.5,30.29,NW,315,7.0,13.0,44,0.00,,,0.00,0,WeatherCatV1.15B25,2013-05-14 05:10:00,
2013-05-13 23:15:00,52.8,31.5,30.29,NW,315,7.0,13.0,44,0.00,,,0.00,0,WeatherCatV1.15B25,2013-05-14 05:15:00,
2013-05-13 23:20:00,52.3,31.6,30.29,NW,315,7.0,11.0,45,0.00,,,0.00,0,WeatherCatV1.15B25,2013-05-14 05:20:00,
2013-05-13 23:25:00,52.3,31.6,30.29,NW,315,7.0,11.0,45,0.00,,,0.00,0,WeatherCatV1.15B25,2013-05-14 05:25:00,
2013-05-13 23:30:00,52.3,31.6,30.29,NW,315,7.0,11.0,45,0.00,,,0.00,0,WeatherCatV1.15B25,2013-05-14 05:30:00,
2013-05-13 23:35:00,52.3,31.6,30.29,NW,315,5.0,13.0,45,0.00,,,0.00,0,WeatherCatV1.15B25,2013-05-14 05:35:00,
2013-05-13 23:40:00,52.3,31.6,30.29,NW,315,5.0,13.0,45,0.00,,,0.00,0,WeatherCatV1.15B25,2013-05-14 05:40:00,
2013-05-13 23:45:00,52.3,31.6,30.29,NW,315,5.0,13.0,45,0.00,,,0.00,0,WeatherCatV1.15B25,2013-05-14 05:45:00,
2013-05-13 23:50:00,51.6,32.0,30.29,NW,315,1.0,6.0,47,0.00,,,0.00,0,WeatherCatV1.15B25,2013-05-14 05:50:00,
2013-05-13 23:55:00,51.6,32.0,30.29,NW,315,1.0,6.0,47,0.00,,,0.00,0,WeatherCatV1.15B25,2013-05-14 05:55:00,